User: anonymous   Login
Location: ?
(35.4996°N, 139.3166°E)
Time: 19:50:31
(UTC+00:00)
Language:

Cosmos 1633 Rocket - Orbit

View from above orbital plane
View from above orbital plane
View from above satellite
View from above satellite

Ground track
Ground track

The orbit data is extracted from the following two-line orbital elements,

1 15593U 85020B   24177.61290676  .00000573  00000-0  63434-4 0  9995
2 15593  82.5373  20.9880 0010804 195.4279 164.6610 14.85604071103802
Epoch (UTC): 25 June 2024 14:42:35
Eccentricity: 0.0010804
inclination: 82.5373°
perigee height: 604 km
apogee height: 619 km
right ascension of ascending node: 20.9880°
argument of perigee: 195.4279°
revolutions per day: 14.85604071
mean anomaly at epoch: 164.6610°
orbit number at epoch: 10380

The dashed part of the orbit path shows where the satellite is in the earth's shadow,  

DLR